Simultaneous Nadir Overpasses (SNOs) Predictions

Prediction of SNOs between METOP-A and TERRA Satellite Orbit:

Table of predicted SNOs for the next 14.0 days since TLE Epoch: 1/27/2018
Index Date (METOP-A) Time (METOP-A) Lat,Lon (METOP-A) SZA (METOP-A ) Date (TERRA) Time (TERRA) Lat,Lon (TERRA) SZA (TERRA ) Distance(km) Time Diff (sec)
1 01/28/2018 01:06:30 81.39,-147.85 102.09 01/28/2018 01:07:05 81.38,-148.00 102.08 2.73 35
2 01/28/2018 01:57:09 -81.39, 20.12 77.85 01/28/2018 01:56:31 -81.39, 19.95 77.89 2.93 38
3 01/30/2018 20:40:47 81.39, -81.19 101.35 01/30/2018 20:41:18 81.40, -81.15 101.37 1.16 31
4 01/30/2018 21:31:27 -81.39, 86.39 78.64 01/30/2018 21:30:45 -81.40, 86.44 78.65 0.87 42
5 02/02/2018 16:15:06 81.39, -14.93 100.53 02/02/2018 16:15:34 81.38, -15.02 100.52 1.67 28
6 02/02/2018 17:05:46 -81.39, 152.66 79.46 02/02/2018 17:05:01 -81.38, 152.59 79.49 1.50 45
7 02/05/2018 11:49:24 81.39, 51.72 99.71 02/05/2018 11:49:49 81.39, 51.54 99.70 2.91 25
8 02/05/2018 12:40:04 -81.39,-140.69 80.28 02/05/2018 12:39:16 -81.39,-140.83 80.32 2.27 48
9 02/08/2018 07:23:42 81.39, 117.96 98.81 02/08/2018 07:24:04 81.38, 117.77 98.80 3.29 22




NCC Satellite Simultaneous Nadir Overpasses (SNOs) Prediction Service
